Terminal Aerodrome Forecast
Issued by NWS

Current Version | Previous Version | Text Only | Print | Product List | Glossary Off
Versions: 1 2 3 4 5 6 7 8 9 10 11 12 13 14 15 16 17 18

000
FTUS41 KPBZ 211900 AAA
TAFMGW
TAF AMD
KMGW 211909Z 2119/2218 29005KT 6SM -SHRA SCT015 BKN045
      TEMPO 2119/2120 3SM -SHRA BKN015
     FM212300 29005KT P6SM VCSH BKN020
     FM221000 33008KT P6SM BKN015 OVC025
     FM221500 33009KT P6SM BKN025=

USA.gov is the U.S. government's official web portal to all federal, state and local government web resources and services.